Temp
-6 -5 -5 -5 -5 -5 -4 -4 -5 -5 -4 -4 -4 -4 -4 -5 -5 -5 -5 -6 -5 -5 -5 -6 -6 -6 -7 -7 -7 -7 -7 -7 -7 -7 -7 -7 -7 -7 -7 -7 -8 -8 -8 -8 -8 -9 -9 -9 -9
-5 -5 -5 -4 -4 -5 -4 -4 -4 -6 -5 -5 -4 -4 -4 -5 -5 -5 -5 -5 -6 -5 -5 -5 -6 -6 -6 -7 -7 -7 -7 -8 -7 -7 -7 -7 -7 -7 -7 -8 -8 -8 -8 -8 -8 -9 -9 -9 -8
-5 -5 -5 -5 -3 -5 -5 -4 -4 -5 -5 -5 -5 -4 -4 -5 -5 -5 -5 -5 -5 -5 -5 -5 -6 -6 -6 -6 -7 -7 -7 -8 -7 -7 -6 -7 -7 -7 -7 -7 -7 -8 -8 -8 -8 -8 -9 -9 -8
-4 -5 -5 -6 -4 -4 -4 -4 -5 -5 -5 -5 -6 -6 -4 -4 -5 -4 -5 -5 -5 -5 -5 -5 -6 -6 -6 -6 -6 -7 -7 -8 -7 -7 -6 -7 -7 -7 -7 -7 -8 -8 -8 -8 -8 -8 -8 -8 -9
-6 -5 -5 -5 -5 -4 -5 -4 -5 -6 -4 -5 -6 -6 -5 -4 -5 -4 -5 -5 -5 -5 -5 -5 -5 -6 -6 -6 -6 -7 -7 -7 -7 -7 -7 -7 -7 -7 -8 -8 -8 -8 -8 -8 -8 -8 -8 -8 -9
-5 -5 -5 -5 -4 -4 -4 -4 -4 -4 -4 -5 -5 -6 -6 -5 -4 -4 -5 -5 -5 -5 -5 -5 -6 -6 -6 -7 -7 -7 -7 -7 -7 -7 -7 -7 -7 -7 -8 -8 -8 -8 -8 -8 -8 -8 -8 -8 -8
-5 -6 -5 -4 -5 -4 -4 -4 -4 -4 -4 -5 -4 -5 -5 -5 -4 -4 -5 -5 -5 -5 -5 -6 -6 -6 -6 -7 -6 -7 -7 -7 -7 -7 -7 -7 -7 -7 -8 -8 -8 -8 -7 -8 -8 -8 -8 -8 -9
-5 -5 -6 -6 -5 -5 -5 -5 -5 -5 -4 -4 -3 -5 -5 -5 -4 -4 -4 -5 -5 -5 -5 -5 -6 -6 -6 -6 -6 -6 -7 -7 -7 -7 -7 -7 -7 -7 -8 -8 -8 -7 -7 -8 -8 -8 -8 -8 -8
-5 -4 -7 -7 -5 -5 -5 -5 -5 -5 -4 -5 -5 -6 -6 -5 -5 -4 -4 -5 -5 -5 -5 -6 -6 -6 -6 -6 -6 -7 -7 -7 -6 -6 -7 -7 -7 -7 -7 -7 -7 -7 -7 -7 -8 -8 -8 -8 -8
-5 -6 -6 -6 -6 -6 -6 -5 -5 -5 -4 -4 -5 -5 -5 -5 -5 -4 -4 -5 -5 -5 -6 -6 -6 -6 -6 -6 -6 -6 -6 -6 -6 -6 -6 -7 -7 -7 -8 -7 -7 -7 -7 -7 -7 -7 -8 -8 -9
-6 -6 -6 -6 -6 -6 -6 -5 -5 -5 -5 -5 -4 -5 -5 -5 -5 -5 -4 -5 -5 -5 -5 -6 -6 -6 -6 -6 -6 -6 -6 -6 -6 -6 -6 -7 -7 -7 -7 -7 -7 -7 -7 -7 -7 -8 -8 -9 -9
-6 -6 -6 -7 -6 -6 -6 -6 -5 -5 -5 -4 -4 -4 -5 -5 -5 -4 -4 -5 -5 -5 -5 -5 -6 -6 -6 -6 -6 -7 -6 -6 -7 -6 -6 -7 -6 -7 -7 -7 -7 -7 -7 -7 -7 -8 -8 -8 -9
-7 -7 -7 -6 -6 -6 -6 -6 -5 -5 -4 -5 -5 -5 -5 -5 -5 -5 -4 -4 -5 -5 -5 -6 -6 -6 -6 -6 -7 -7 -6 -6 -7 -6 -7 -6 -7 -7 -7 -7 -7 -7 -7 -7 -7 -8 -8 -8 -8
-7 -7 -5 -5 -6 -6 -6 -7 -5 -5 -5 -5 -5 -5 -6 -5 -5 -5 -5 -5 -5 -5 -5 -5 -6 -6 -6 -7 -7 -7 -7 -7 -7 -7 -7 -7 -6 -7 -6 -7 -7 -7 -7 -7 -7 -7 -7 -7 -8
-7 -5 -5 -6 -6 -7 -6 -7 -5 -5 -6 -6 -6 -6 -6 -6 -5 -5 -6 -6 -6 -6 -5 -6 -6 -6 -6 -6 -7 -6 -7 -6 -7 -6 -6 -6 -6 -6 -7 -7 -7 -7 -8 -7 -7 -7 -7 -8 -8
-7 -6 -6 -6 -6 -7 -6 -7 -7 -6 -6 -6 -6 -6 -6 -6 -6 -6 -6 -6 -5 -5 -6 -6 -6 -6 -6 -6 -7 -6 -7 -6 -6 -6 -7 -7 -6 -6 -7 -7 -7 -7 -8 -7 -7 -8 -8 -8 -8
-7 -7 -7 -6 -7 -7 -7 -6 -7 -7 -7 -6 -6 -7 -6 -6 -6 -6 -6 -6 -6 -5 -5 -6 -6 -6 -6 -7 -7 -7 -7 -7 -7 -6 -7 -7 -7 -6 -7 -7 -7 -7 -8 -7 -7 -8 -8 -8 -8
-7 -6 -7 -7 -7 -7 -7 -7 -7 -6 -7 -7 -7 -7 -6 -6 -6 -6 -6 -6 -6 -6 -6 -6 -6 -7 -6 -6 -7 -7 -7 -7 -7 -7 -7 -7 -7 -7 -7 -7 -7 -7 -8 -7 -7 -8 -8 -8 -8
-6 -7 -7 -8 -8 -7 -7 -7 -6 -7 -6 -7 -7 -7 -7 -7 -7 -7 -7 -6 -7 -7 -7 -6 -6 -7 -7 -6 -6 -7 -7 -7 -7 -7 -7 -7 -7 -6 -7 -6 -7 -7 -8 -8 -8 -8 -8 -8 -8
-6 -6 -7 -7 -7 -8 -7 -7 -7 -7 -7 -7 -7 -7 -7 -7 -7 -7 -7 -7 -7 -7 -7 -7 -7 -7 -7 -7 -7 -7 -7 -7 -7 -7 -7 -7 -7 -7 -7 -7 -7 -8 -7 -7 -8 -8 -8 -8 -8
-5 -6 -6 -6 -7 -7 -7 -7 -7 -7 -7 -7 -7 -7 -8 -7 -8 -7 -7 -7 -7 -6 -6 -6 -6 -7 -7 -7 -7 -7 -7 -7 -7 -7 -7 -7 -7 -7 -7 -8 -8 -8 -7 -7 -7 -8 -8 -9 -8
-5 -6 -6 -7 -7 -7 -7 -7 -7 -7 -7 -8 -7 -7 -8 -8 -8 -8 -7 -8 -7 -7 -7 -6 -6 -7 -7 -7 -7 -7 -7 -7 -7 -7 -7 -7 -7 -6 -7 -7 -8 -8 -7 -7 -8 -8 -8 -8 -8
-6 -7 -7 -6 -7 -7 -7 -6 -7 -7 -7 -8 -8 -7 -8 -8 -8 -8 -8 -8 -7 -7 -7 -7 -6 -6 -6 -7 -7 -7 -7 -7 -7 -7 -7 -7 -7 -7 -7 -7 -7 -8 -8 -7 -8 -8 -8 -8 -8
-7 -7 -7 -7 -7 -7 -8 -7 -7 -6 -6 -7 -7 -8 -8 -8 -8 -8 -7 -8 -8 -8 -7 -7 -7 -7 -7 -7 -7 -7 -7 -7 -7 -7 -7 -7 -7 -7 -7 -7 -7 -7 -8 -7 -8 -8 -8 -8 -7
-7 -6 -7 -7 -7 -7 -7 -7 -7 -6 -6 -7 -7 -7 -8 -7 -8 -7 -7 -7 -8 -7 -7 -8 -7 -7 -7 -7 -7 -7 -7 -7 -7 -7 -7 -8 -8 -7 -7 -7 -7 -7 -7 -8 -8 -8 -7 -7 -7
-7 -7 -7 -7 -7 -7 -6 -6 -6 -7 -7 -7 -7 -7 -7 -8 -8 -7 -8 -8 -8 -8 -8 -7 -7 -7 -8 -8 -8 -8 -8 -8 -8 -7 -7 -8 -8 -8 -7 -7 -7 -7 -7 -8 -8 -8 -8 -8 -8
-8 -8 -7 -7 -7 -6 -6 -7 -7 -8 -8 -8 -7 -7 -7 -8 -8 -8 -8 -8 -8 -9 -8 -9 -9 -9 -8 -8 -9 -8 -8 -8 -8 -8 -8 -7 -8 -8 -8 -8 -7 -7 -7 -7 -8 -8 -8 -8 -8
-8 -8 -8 -7 -7 -7 -6 -7 -7 -7 -8 -8 -8 -8 -8 -8 -8 -9 -9 -9 -8 -8 -9 -9 -9 -8 -9 -9 -8 -8 -9 -8 -8 -8 -8 -8 -7 -7 -8 -8 -7 -7 -7 -7 -7 -7 -7 -8 -8
-8 -8 -8 -7 -7 -8 -8 -8 -8 -8 -8 -8 -8 -8 -9 -8 -8 -8 -8 -8 -8 -8 -8 -9 -9 -9 -9 -9 -6 -5 -8 -9 -8 -8 -8 -8 -8 -8 -7 -8 -8 -8 -7 -7 -7 -7 -7 -7 -7
-7 -8 -8 -8 -7 -8 -7 -7 -7 -8 -8 -8 -8 -8 -8 -8 -8 -8 -8 -9 -9 -9 -9 -9 -9 -9 -9 -10 -9 -8 -9 -9 -8 -8 -8 -8 -8 -8 -8 -7 -7 -7 -7 -7 -7 -7 -7 -7 -7
Height
5905 5906 5906 5905 5907 5905 5904 5902 5901 5900 5901 5901 5899 5897 5896 5897 5897 5899 5896 5894 5893 5894 5894 5895 5895 5895 5894 5894 5894 5896 5896 5898 5899 5898 5898 5898 5897 5897 5897 5896 5894 5893 5895 5896 5895 5895 5895 5895 5896
5906 5907 5907 5907 5904 5904 5904 5903 5904 5903 5903 5900 5900 5898 5897 5897 5897 5897 5897 5896 5895 5894 5893 5893 5894 5895 5896 5896 5896 5895 5895 5898 5899 5898 5898 5898 5899 5898 5897 5896 5895 5893 5895 5896 5896 5897 5896 5896 5897
5909 5908 5908 5907 5903 5903 5904 5904 5904 5904 5904 5900 5900 5899 5899 5897 5897 5897 5896 5896 5895 5895 5894 5893 5893 5893 5894 5897 5897 5897 5896 5898 5899 5898 5899 5899 5899 5899 5898 5897 5896 5894 5895 5896 5897 5898 5899 5898 5898
5910 5909 5908 5908 5907 5906 5905 5901 5902 5902 5907 5903 5902 5900 5900 5898 5898 5898 5896 5896 5895 5894 5894 5893 5893 5893 5893 5895 5897 5895 5896 5898 5899 5900 5899 5899 5900 5900 5898 5898 5897 5895 5895 5896 5898 5900 5901 5900 5900
5909 5909 5907 5906 5907 5906 5905 5904 5892 5901 5906 5905 5904 5901 5900 5899 5899 5899 5897 5896 5896 5896 5895 5893 5894 5894 5895 5895 5896 5897 5898 5899 5899 5899 5899 5900 5901 5900 5898 5898 5897 5895 5896 5897 5898 5901 5902 5901 5901
5908 5908 5908 5906 5906 5907 5908 5905 5902 5900 5906 5905 5904 5900 5899 5899 5899 5897 5897 5897 5897 5896 5895 5895 5895 5895 5896 5896 5896 5897 5898 5898 5898 5899 5900 5900 5901 5900 5899 5899 5899 5897 5898 5899 5900 5902 5902 5902 5901
5908 5907 5907 5906 5905 5906 5907 5906 5903 5903 5905 5906 5904 5900 5901 5899 5900 5898 5896 5895 5897 5896 5895 5895 5897 5896 5896 5896 5896 5897 5899 5898 5898 5900 5901 5901 5902 5902 5902 5901 5901 5900 5899 5901 5902 5902 5903 5903 5902
5908 5908 5906 5906 5905 5904 5905 5904 5902 5904 5905 5904 5902 5899 5900 5899 5900 5899 5896 5896 5896 5896 5895 5895 5896 5898 5896 5896 5897 5898 5898 5897 5897 5899 5901 5902 5902 5902 5902 5901 5902 5902 5901 5901 5902 5903 5903 5904 5903
5908 5907 5906 5906 5906 5907 5905 5904 5903 5903 5903 5903 5901 5897 5898 5897 5896 5897 5895 5895 5895 5895 5895 5895 5897 5897 5896 5896 5897 5897 5898 5896 5897 5899 5901 5901 5903 5903 5902 5903 5903 5902 5901 5903 5904 5904 5904 5906 5904
5908 5906 5908 5908 5907 5906 5906 5906 5906 5903 5903 5904 5904 5902 5899 5898 5897 5898 5895 5895 5895 5894 5895 5896 5897 5897 5897 5896 5897 5898 5898 5898 5899 5901 5901 5902 5903 5903 5903 5904 5905 5904 5904 5903 5905 5905 5906 5907 5907
5907 5908 5908 5908 5908 5906 5905 5905 5905 5903 5903 5904 5904 5901 5901 5899 5898 5898 5897 5896 5896 5896 5896 5896 5897 5897 5897 5896 5896 5898 5899 5900 5901 5902 5902 5902 5904 5905 5905 5905 5906 5906 5905 5905 5905 5906 5906 5906 5907
5909 5908 5908 5909 5908 5907 5905 5906 5907 5904 5902 5903 5903 5901 5900 5900 5899 5898 5898 5896 5897 5897 5898 5897 5898 5898 5897 5896 5896 5897 5899 5900 5901 5902 5902 5903 5905 5906 5906 5906 5907 5906 5906 5907 5906 5907 5907 5907 5906
5908 5910 5910 5910 5909 5909 5906 5906 5907 5905 5902 5901 5902 5902 5901 5899 5899 5898 5898 5898 5898 5897 5897 5898 5897 5898 5898 5898 5898 5896 5899 5901 5902 5901 5902 5904 5905 5906 5906 5907 5908 5907 5908 5909 5908 5908 5908 5908 5909
5908 5909 5911 5910 5909 5909 5908 5908 5907 5906 5904 5901 5901 5902 5902 5901 5899 5899 5899 5899 5899 5899 5898 5898 5898 5897 5898 5899 5899 5900 5901 5902 5902 5902 5903 5905 5905 5904 5905 5904 5906 5906 5908 5910 5911 5909 5909 5910 5912
5911 5911 5910 5910 5909 5910 5909 5910 5909 5908 5907 5905 5904 5904 5904 5903 5902 5901 5899 5899 5899 5900 5899 5898 5897 5897 5897 5898 5899 5901 5902 5903 5902 5902 5903 5904 5905 5905 5904 5903 5904 5906 5908 5910 5912 5913 5912 5912 5914
5912 5912 5911 5910 5910 5912 5911 5911 5911 5910 5910 5908 5907 5906 5905 5904 5904 5903 5902 5900 5899 5899 5899 5899 5899 5898 5898 5899 5899 5901 5902 5902 5903 5903 5904 5904 5904 5905 5905 5905 5905 5906 5909 5910 5913 5914 5913 5914 5914
5911 5912 5912 5912 5911 5912 5913 5913 5913 5912 5910 5911 5910 5910 5909 5907 5905 5903 5902 5901 5900 5899 5899 5899 5900 5899 5899 5900 5900 5901 5902 5902 5904 5903 5903 5903 5904 5905 5906 5906 5908 5909 5910 5912 5913 5913 5913 5913 5914
5910 5911 5911 5913 5914 5913 5913 5914 5915 5914 5911 5911 5911 5911 5911 5909 5907 5906 5904 5902 5901 5901 5901 5901 5900 5900 5900 5900 5900 5900 5902 5902 5903 5904 5904 5903 5904 5905 5907 5907 5908 5909 5910 5912 5912 5911 5912 5914 5913
5911 5911 5910 5912 5914 5914 5912 5913 5914 5913 5912 5912 5911 5910 5910 5910 5909 5907 5905 5904 5902 5902 5901 5901 5900 5900 5900 5900 5900 5900 5901 5901 5899 5902 5903 5903 5903 5904 5906 5908 5909 5908 5908 5909 5910 5911 5913 5912 5913
5908 5909 5909 5910 5911 5913 5913 5912 5912 5914 5912 5913 5912 5911 5910 5909 5908 5908 5906 5905 5904 5902 5901 5901 5901 5900 5901 5900 5899 5900 5900 5900 5900 5902 5901 5902 5903 5904 5905 5906 5907 5906 5905 5907 5910 5912 5911 5911 5912
5907 5907 5908 5909 5909 5910 5911 5912 5912 5913 5913 5913 5913 5912 5910 5910 5909 5909 5908 5907 5905 5904 5902 5901 5900 5901 5902 5902 5901 5900 5900 5900 5900 5900 5901 5900 5901 5903 5904 5904 5906 5905 5904 5905 5909 5910 5909 5911 5912
5906 5907 5908 5909 5911 5910 5911 5913 5913 5913 5911 5911 5912 5912 5910 5910 5909 5908 5908 5908 5907 5905 5903 5902 5901 5900 5902 5902 5902 5902 5901 5901 5900 5899 5900 5899 5899 5901 5903 5903 5902 5901 5903 5904 5905 5907 5908 5909 5912
5906 5907 5908 5908 5909 5910 5911 5912 5912 5912 5909 5909 5910 5911 5910 5909 5909 5908 5908 5908 5908 5906 5904 5902 5900 5900 5900 5901 5902 5902 5902 5901 5901 5900 5899 5898 5898 5899 5900 5900 5900 5901 5902 5903 5904 5905 5905 5906 5909
5904 5907 5907 5908 5908 5909 5909 5908 5908 5908 5906 5908 5909 5910 5910 5909 5907 5905 5905 5905 5905 5905 5904 5903 5900 5899 5899 5899 5900 5900 5900 5900 5899 5899 5900 5899 5897 5897 5898 5899 5898 5899 5900 5902 5902 5903 5903 5904 5907
5904 5906 5907 5907 5907 5906 5905 5906 5905 5905 5905 5907 5910 5908 5910 5909 5909 5909 5908 5909 5907 5904 5901 5901 5901 5899 5898 5898 5898 5896 5895 5896 5897 5896 5897 5898 5898 5896 5897 5897 5896 5897 5898 5899 5900 5901 5902 5902 5905
5902 5904 5905 5906 5906 5905 5904 5903 5903 5903 5904 5906 5907 5907 5908 5909 5909 5910 5910 5908 5905 5902 5900 5900 5899 5899 5895 5895 5894 5894 5891 5891 5892 5892 5893 5893 5895 5895 5894 5894 5894 5894 5895 5895 5897 5898 5899 5898 5902
5900 5902 5904 5904 5903 5904 5903 5902 5900 5899 5901 5903 5903 5904 5906 5906 5908 5908 5905 5910 5904 5900 5897 5896 5894 5895 5893 5891 5890 5890 5889 5886 5887 5887 5887 5889 5890 5892 5892 5891 5893 5892 5893 5893 5893 5894 5896 5896 5896
5896 5899 5900 5901 5902 5900 5899 5901 5899 5899 5898 5898 5900 5901 5903 5904 5904 5905 5902 5900 5900 5898 5893 5888 5887 5889 5890 5886 5882 5884 5887 5886 5885 5886 5883 5884 5885 5886 5888 5888 5888 5889 5891 5891 5891 5891 5892 5894 5895
5896 5895 5897 5898 5897 5897 5897 5898 5898 5898 5898 5897 5897 5897 5898 5901 5900 5900 5897 5896 5896 5892 5891 5885 5880 5886 5889 5886 5847 5873 5881 5883 5883 5883 5884 5879 5879 5880 5880 5881 5883 5884 5886 5887 5887 5888 5888 5890 5892
5892 5892 5893 5894 5895 5893 5893 5894 5895 5896 5895 5894 5892 5893 5895 5893 5893 5890 5888 5886 5887 5884 5884 5884 5884 5879 5883 5875 5877 5867 5872 5874 5876 5877 5878 5879 5876 5876 5875 5875 5876 5878 5880 5880 5881 5883 5884 5886 5888
Wind_Speed
4 3 2 5 9 3 11 16 15 16 18 13 10 9 12 11 11 10 9 9 6 2 3 4 6 6 5 3 6 5 1 2 4 4 6 7 7 6 6 7 7 6 4 4 2 3 3 5 5
8 3 1 3 11 3 8 10 13 11 15 12 9 11 10 9 10 10 8 9 8 5 1 4 4 6 4 5 3 4 1 2 4 6 8 7 6 5 5 5 6 7 6 2 3 3 5 4 4
8 7 10 5 5 1 0 8 12 11 11 9 8 10 7 8 7 8 8 8 6 2 4 1 3 3 5 7 6 6 2 1 4 5 6 5 4 4 5 5 7 7 8 5 4 4 6 4 7
6 4 3 1 2 4 4 2 3 12 12 9 11 11 8 7 6 5 8 7 5 4 3 1 4 3 6 8 6 4 2 2 2 3 4 4 4 4 5 6 7 7 8 6 5 4 5 6 6
11 6 3 1 3 4 6 11 4 11 11 5 5 7 6 7 5 3 7 8 7 6 6 5 7 6 7 7 6 5 3 2 3 1 3 3 3 4 5 7 6 7 8 5 4 6 6 7 9
4 5 3 1 2 3 4 7 11 13 11 9 3 3 4 5 5 4 6 6 7 9 8 8 8 5 3 4 4 5 5 5 6 3 4 2 1 4 5 7 7 7 8 5 5 6 8 9 7
4 2 3 1 2 2 5 5 8 8 8 11 6 3 3 6 4 5 6 7 7 7 6 7 4 5 5 7 3 2 8 10 10 7 5 2 0 3 4 6 6 5 7 4 5 8 8 8 7
6 5 5 5 6 10 10 10 10 9 11 10 6 6 6 7 4 4 6 6 7 7 6 5 3 2 2 3 2 1 2 9 10 8 6 4 2 1 1 3 3 3 5 3 5 8 9 9 7
8 5 5 3 4 7 7 9 8 8 8 11 14 8 9 3 3 2 4 7 7 8 6 5 6 2 2 4 5 3 3 3 8 8 5 5 3 2 2 3 1 1 3 4 5 4 6 10 7
5 6 4 2 5 6 6 7 6 7 7 12 10 9 5 0 2 1 4 5 5 7 6 4 3 1 4 8 9 4 4 5 6 7 5 5 4 4 2 2 1 2 3 1 4 5 7 8 7
3 2 5 6 9 4 7 9 7 7 7 8 8 6 5 2 1 1 4 6 4 4 6 4 3 2 4 2 3 9 8 5 6 6 4 4 3 1 1 3 2 2 1 1 3 7 8 9 8
6 4 7 9 13 14 11 11 10 10 6 7 7 5 5 2 1 1 3 6 4 5 4 5 4 3 4 4 3 13 6 4 5 5 6 5 3 2 3 1 4 4 4 2 4 3 7 7 6
11 5 8 9 16 14 17 12 13 8 7 11 9 6 3 4 2 2 3 4 4 4 4 4 3 2 4 4 4 8 5 2 1 6 9 5 2 5 6 7 4 7 6 5 4 3 4 3 5
15 12 10 13 17 16 17 12 12 13 13 15 14 9 3 2 3 4 1 2 3 2 2 4 2 1 7 5 6 5 3 6 5 4 7 4 2 4 11 7 10 11 9 5 3 5 4 2 3
11 9 12 14 17 18 15 11 11 15 17 18 18 14 8 5 4 5 3 1 2 2 2 2 3 3 7 6 6 4 3 3 2 0 4 4 3 3 5 9 12 13 10 7 4 4 3 2 1
11 7 12 12 15 16 14 11 12 15 16 17 18 19 15 8 7 7 5 4 3 4 4 4 3 3 2 6 6 4 2 1 1 3 2 3 5 4 3 4 12 16 13 9 4 2 4 5 5
10 11 13 11 11 12 15 13 16 15 12 13 14 16 17 17 14 9 7 7 4 4 3 4 3 4 6 6 6 5 2 2 2 4 3 4 9 7 4 1 3 10 14 9 5 4 4 4 5
10 12 13 10 8 11 14 14 11 12 14 9 13 15 15 17 16 15 11 8 7 5 1 2 3 3 7 4 5 5 4 5 2 4 5 2 9 10 8 5 3 9 14 13 8 7 5 2 7
7 8 5 1 5 8 10 10 9 13 14 14 16 13 14 16 17 16 14 11 9 5 5 3 1 3 5 7 5 6 7 8 4 1 4 6 9 10 9 8 4 8 9 11 9 9 6 1 3
12 8 5 7 7 7 5 7 6 16 18 17 19 16 11 13 14 13 14 10 8 7 6 5 3 4 5 7 7 7 9 7 8 3 4 4 9 10 9 8 6 7 10 13 14 10 7 4 2
8 6 5 7 8 6 4 8 4 9 13 14 11 14 16 10 11 9 12 11 6 5 7 6 5 3 7 7 8 9 5 7 8 7 5 6 4 10 10 8 7 9 10 13 11 10 10 7 8
5 4 5 5 5 3 4 6 2 4 9 12 12 12 17 13 8 9 10 10 8 6 6 5 7 7 6 7 9 9 9 8 8 9 8 8 8 7 7 7 5 4 12 16 14 13 11 9 8
4 5 11 10 10 4 2 2 2 3 7 7 9 13 14 10 6 7 10 10 11 8 7 6 5 5 4 6 7 8 8 9 10 9 10 12 10 11 9 8 5 3 5 8 12 10 12 10 11
8 9 10 9 7 5 5 9 8 10 2 6 11 13 17 11 2 1 3 4 7 8 9 8 6 4 4 5 7 7 8 9 9 11 11 11 12 13 11 12 11 7 8 8 7 8 8 13 14
14 13 13 10 17 13 13 12 10 11 8 5 13 14 14 13 13 9 9 9 10 7 9 10 8 7 6 5 6 7 8 10 10 11 12 13 12 12 13 13 12 11 11 9 7 8 9 12 15
16 16 14 11 22 13 14 13 13 15 12 9 8 11 10 10 12 9 10 16 9 7 15 14 13 7 5 4 5 8 7 7 11 12 13 14 14 14 14 12 13 15 14 14 12 10 10 12 14
22 19 17 12 15 16 15 13 11 16 14 14 14 13 11 12 13 16 26 13 14 7 18 16 12 10 10 9 6 10 12 11 11 12 14 15 16 16 18 19 15 13 14 15 16 15 14 14 15
19 22 20 17 16 19 20 16 16 14 16 22 18 16 18 18 22 24 24 18 13 16 16 27 18 11 14 13 11 12 11 11 12 15 14 15 16 18 19 20 21 19 18 19 18 19 19 18 19
19 18 19 19 21 22 24 23 20 17 20 22 24 24 21 19 22 24 26 20 18 23 21 29 25 34 24 23 17 16 11 11 14 15 19 17 17 18 19 20 22 23 23 21 20 21 21 23 23
21 22 21 22 20 22 26 27 28 28 28 30 31 30 30 31 26 27 25 24 30 28 31 30 28 15 20 29 24 21 11 15 16 18 17 22 21 20 20 21 22 24 26 25 23 23 23 23 25
Wind_Direction
141 128 13 12 14 43 27 52 54 64 40 43 48 59 61 56 61 59 56 49 43 23 136 151 157 178 188 73 156 168 311 54 59 25 23 17 27 14 8 1 354 347 17 50 65 75 114 151 126
168 132 8 31 335 279 346 44 47 66 39 31 38 42 65 62 60 61 61 48 35 14 173 188 169 180 208 199 146 180 216 50 57 35 26 17 13 9 6 357 357 350 358 37 80 79 113 154 134
154 156 75 149 306 46 155 21 20 38 24 31 20 30 45 67 63 76 78 68 50 61 78 84 188 185 207 205 190 211 218 17 42 27 17 15 8 7 357 350 2 347 345 341 54 82 103 136 131
173 184 132 165 62 43 306 17 22 58 45 41 26 348 10 41 45 55 82 81 46 151 118 11 159 167 163 178 194 194 200 313 9 13 360 6 348 353 346 359 357 347 341 343 21 59 102 114 116
108 35 253 8 16 50 86 310 229 46 30 89 339 320 334 32 58 41 77 82 77 119 114 101 141 133 152 175 195 216 214 241 282 316 324 346 353 350 339 355 346 337 341 341 16 54 103 100 123
235 33 341 4 288 355 340 351 341 17 20 46 76 347 354 25 74 88 86 86 98 113 109 112 143 145 173 207 222 245 248 253 255 255 279 334 333 336 344 350 343 336 347 355 21 60 95 103 123
286 222 349 319 60 15 46 18 27 16 11 41 40 194 61 60 36 85 113 98 104 122 111 113 148 176 248 247 255 236 250 250 252 250 249 255 294 338 353 346 348 338 353 9 45 81 96 114 127
283 222 355 12 12 17 23 21 23 27 24 33 20 186 183 92 40 89 114 99 103 110 109 111 124 223 114 166 211 162 264 254 248 229 213 219 158 300 5 323 341 1 354 42 80 101 128 131 148
248 356 18 4 2 40 21 22 42 357 39 56 90 128 144 113 5 50 89 120 105 106 110 98 154 122 185 215 250 306 350 14 174 191 195 198 172 211 245 331 340 46 4 40 91 110 128 121 142
290 16 70 77 27 23 11 34 48 29 51 82 79 96 109 235 333 23 94 110 135 118 119 149 143 298 256 241 250 222 100 118 153 171 197 186 196 223 253 336 282 60 31 43 89 94 92 109 125
322 12 93 57 59 21 34 37 39 37 36 63 75 64 61 89 141 358 99 114 143 129 125 122 137 121 89 113 234 188 130 127 150 184 194 207 198 292 19 31 113 83 117 224 122 95 113 86 110
123 104 79 67 60 59 65 45 57 42 38 45 62 78 87 41 37 61 107 112 121 118 130 130 127 137 122 103 73 188 153 143 151 199 205 201 174 237 216 97 145 160 179 178 108 116 100 99 91
111 86 105 93 78 66 57 42 63 67 49 57 54 40 52 125 154 4 32 88 99 119 135 138 147 154 177 159 99 91 116 119 118 197 213 215 209 263 219 269 190 192 178 196 79 86 154 92 77
138 145 124 93 71 59 57 42 33 58 63 54 55 53 60 160 126 106 125 58 61 103 139 165 162 169 199 188 143 120 101 117 87 197 217 211 213 283 223 233 175 184 182 185 179 152 180 127 67
131 123 101 89 72 51 58 60 38 55 62 62 52 55 76 77 67 83 121 151 353 27 36 172 213 148 187 180 169 141 118 119 46 73 225 221 216 270 278 234 162 175 189 194 212 181 170 173 184
135 104 97 87 76 66 64 76 66 61 61 61 60 55 57 86 91 81 60 39 31 43 26 341 273 295 221 201 180 174 175 51 4 318 308 213 216 229 283 7 189 175 197 199 176 176 153 194 176
129 109 103 93 78 81 77 88 101 76 59 61 61 59 59 61 62 68 64 48 28 45 29 356 305 284 290 233 215 209 199 258 308 319 312 233 222 218 234 201 201 238 192 206 168 184 209 235 202
158 144 117 87 96 103 99 101 95 85 70 73 64 64 60 57 52 51 44 33 23 10 17 57 347 299 267 245 235 222 209 253 260 328 341 233 221 218 230 247 288 235 186 199 175 182 172 207 108
194 177 133 119 116 142 125 125 113 70 71 81 53 46 41 55 54 49 41 29 11 359 353 323 318 329 273 268 269 275 266 264 219 261 318 242 222 225 235 254 266 253 247 200 191 200 200 243 76
192 173 176 201 153 184 151 139 104 86 84 87 49 54 43 32 34 41 43 36 27 15 340 344 2 301 299 277 274 273 284 244 229 227 278 235 227 230 240 256 278 277 233 193 206 204 203 214 211
171 162 186 201 177 179 175 157 103 87 94 65 36 48 49 33 29 33 45 28 26 12 10 348 324 296 279 270 268 264 249 246 249 244 243 255 232 229 233 232 263 273 207 210 207 200 203 212 238
172 198 224 182 199 175 165 164 42 58 71 44 23 27 31 36 26 21 37 30 30 35 15 7 358 321 257 279 256 257 250 250 244 254 237 247 239 232 218 229 254 216 198 223 209 201 221 222 231
160 167 187 185 187 177 126 147 330 282 42 11 350 13 20 22 33 17 24 16 18 19 30 32 13 1 258 254 255 249 260 258 260 260 252 250 246 240 218 231 226 210 194 217 210 224 251 234 223
177 184 177 164 181 186 221 250 265 262 284 360 347 350 344 347 226 271 59 63 10 14 14 11 15 22 356 266 260 240 245 261 261 259 261 260 252 250 245 228 239 217 216 209 227 229 257 221 223
186 196 158 160 165 195 234 252 273 291 314 334 347 346 346 1 330 336 360 342 331 11 12 2 354 356 9 340 293 256 256 258 266 268 258 263 264 256 249 247 246 242 231 225 221 228 239 218 216
198 200 189 171 184 217 250 273 285 280 296 276 341 343 347 6 354 344 14 325 289 360 352 346 337 320 326 337 297 266 238 237 249 254 259 257 260 266 266 259 259 247 244 236 231 231 230 208 212
200 212 219 210 230 248 254 265 274 280 273 279 298 309 344 337 324 313 281 294 266 305 331 316 318 299 297 283 251 264 255 228 224 237 245 249 251 249 259 264 259 249 246 248 241 233 227 225 228
202 217 228 227 235 255 261 251 269 278 281 283 288 303 319 311 314 305 309 314 250 272 291 311 260 262 276 290 264 277 268 260 256 246 237 245 244 246 247 253 260 254 250 249 247 247 233 227 227
204 217 227 235 228 241 255 262 265 259 271 281 289 299 306 312 308 297 286 308 296 310 300 312 317 304 265 267 287 261 275 274 273 267 261 241 247 245 247 249 253 258 255 248 249 252 243 233 231
226 228 232 237 241 247 251 257 262 268 278 286 294 302 300 300 305 303 297 299 306 305 308 307 303 317 275 309 306 268 255 269 268 270 265 260 251 247 247 248 252 254 255 251 244 242 242 238 236